sat.trackr.live / text

‹ back to catalog

SITRO-TD-3

NORAD 67270 · 2025-313Y

PAYLOAD ACTIVE UNKNOWN

§ Identity

Operator
Country
CIS
Launch date
2025-12-28
Launch site
VOSTO
Launch vehicle
Mass (kg)
RCS (m²)

External: N2YO · Heavens-Above · Gunter

§ Orbital elements

Epoch: 2026-05-25T04:32:07.679328Z

Period
94.55 min
Inclination
97.3944°
Eccentricity
0.0016144
Mean motion
15.22959854 rev/d
Perigee alt
485.8 km
Apogee alt
508.0 km
Semi-major
6,875.1 km
B*
3.8195e-4
RAAN
220.2396°
Arg perigee
87.0470°
Mean anomaly
273.2614°
Rev number
2,245

§ Raw data

SITRO-TD-31 67270U 25313Y   26145.18897777  .00008935  00000+0  38195-3 0  99912 67270  97.3944 220.2396 0016144  87.0470 273.2614 15.22959854 22454

JSON: /api/v1/satellites/67270 · /tle

For live sub-satellite position, see the globe view (requires WebGL).

§ Visibility from observer

Set your observer location to see the next 7 days of passes ≥ 10°. The values pass through the URL so the page stays shareable.

No JS? Fill the form by hand. The geolocation button needs JavaScript.